Location: Unspecified
(50.0830°N, 0.0000°E)
Time: 18:25:05
(UTC+00:00)

N. Korean satellite - Pass Details

Date: 18 November 2019
Orbit: 456 x 506 km, 97.2° (Epoch: 09 December)

Event Time Altitude Azimuth Distance (km) Brightness Sun altitude
Rises 17:10:55 0° 175° (S) 2,558 10.4 -9.4°
Reaches altitude 10° 17:13:00 10° 180° (S) 1,690 9.6 -9.7°
Maximum altitude 17:16:35 57° 260° (W) 597 7.4 -10.2°
Drops below altitude 10° 17:20:15 10° 340° (NNW) 1,726 9.4 -10.8°
Sets 17:22:24 0° 344° (NNW) 2,620 10.3 -11.1°
